Weather History for Rutland, VT

Change the Weather History Date:

Thursday, June 21, 2012

  Actual Average Record
Temperature  
Mean Temperature 78 °F -  
Max Temperature 90 °F - 93 °F (1953)
Min Temperature 66 °F - 42 °F (2004)
Degree Days  
Heating Degree Days 0    
Month to date heating degree days 79  
Since 1 June heating degree days 79  
Since 1 July heating degree days 6061  
Cooling Degree Days 13    
Month to date cooling degree days 42  
Year to date cooling degree days 84  
Since 1 June cooling degree days 42  
Growing Degree Days 28 (Base 50)    
Moisture  
Dew Point 60 °F    
Average Humidity 56    
Maximum Humidity 73    
Minimum Humidity 38    
Precipitation  
Precipitation 0.00 in - 1.27 in (1976)
Month to date precipitation 1.01  
Year to date precipitation 9.33  
Sea Level Pressure  
Sea Level Pressure 29.85 in    
Wind  
Wind Speed 4 mph (SSW)    
Max Wind Speed 9 mph    
Max Gust Speed 16 mph    
Visibility 10 miles    
Events      
T = Trace of Precipitation, MM = Missing Value Source: NWS Daily Summary

Daily Weather History Graph

Daily Weather History Graph

Search for Another Location

Airport:

Trip Planner

Search our weather history database for the weather conditions in past years. The results will help you decide how hot, cold, wet, or windy it might be!

Date:

Astronomy

Jun. 21, 2012 Rise Set
Actual Time 5:10 AM EDT 8:36 PM EDT
Civil Twilight 4:34 AM EDT 9:12 PM EDT
Nautical Twilight 3:47 AM EDT 9:59 PM EDT
Astronomical Twilight 2:48 AM EDT 10:58 PM EDT
Moon 7:09 AM EDT (6/21) 9:53 PM EDT (6/21)
Length of Visible Light 16h 37m
Length of Day
15h 25m
Waxing Crescent, 4% of the Moon is Illuminated
Jun 21
Waxing Crescent
Jun 26
First Quarter
Jul 3
Full
Jul 10
Last Quarter
Jul 19
New

Hourly Weather History & Observations

Time (EDT) Temp. Heat Index Dew Point Humidity Pressure Visibility Wind Dir Wind Speed Gust Speed Precip Events Conditions
12:15 AM 75.2 °F - 60.8 °F 61% 29.93 in 10.0 mi Calm Calm - N/A   Scattered Clouds
12:35 AM 73.4 °F - 60.8 °F 65% 29.93 in 10.0 mi SSE 3.5 mph - N/A   Mostly Cloudy
12:55 AM 73.4 °F - 59.0 °F 61% 29.93 in 10.0 mi SSE 3.5 mph - N/A   Partly Cloudy
1:15 AM 73.4 °F - 59.0 °F 61% 29.93 in 10.0 mi ENE 3.5 mph - N/A   Scattered Clouds
1:35 AM 73.4 °F - 59.0 °F 61% 29.93 in 10.0 mi Calm Calm - N/A   Partly Cloudy
1:55 AM 71.6 °F - 59.0 °F 64% 29.93 in 10.0 mi Calm Calm - N/A   Clear
2:15 AM 71.6 °F - 59.0 °F 64% 29.93 in 10.0 mi NNE 3.5 mph - N/A   Clear
2:35 AM 71.6 °F - 59.0 °F 64% 29.92 in 10.0 mi Calm Calm - N/A   Clear
2:55 AM 69.8 °F - 57.2 °F 64% 29.92 in 10.0 mi SE 5.8 mph - N/A   Clear
3:15 AM 68.0 °F - 57.2 °F 68% 29.92 in 10.0 mi SE 5.8 mph - N/A   Clear
3:35 AM 68.0 °F - 57.2 °F 68% 29.92 in 10.0 mi SE 4.6 mph - N/A   Scattered Clouds
3:55 AM 68.0 °F - 57.2 °F 68% 29.91 in 10.0 mi Calm Calm - N/A   Partly Cloudy
4:15 AM 68.0 °F - 57.2 °F 68% 29.91 in 10.0 mi SE 4.6 mph - N/A   Clear
4:35 AM 68.0 °F - 57.2 °F 68% 29.91 in 10.0 mi East 3.5 mph - N/A   Clear
4:55 AM 68.0 °F - 57.2 °F 68% 29.91 in 10.0 mi SE 6.9 mph - N/A   Clear
5:15 AM 68.0 °F - 57.2 °F 68% 29.91 in 10.0 mi SE 9.2 mph - N/A   Clear
5:35 AM 66.2 °F - 57.2 °F 73% 29.92 in 10.0 mi SE 9.2 mph - N/A   Clear
5:55 AM 66.2 °F - 57.2 °F 73% 29.91 in 10.0 mi SE 9.2 mph - N/A   Clear
6:15 AM 68.0 °F - 57.2 °F 68% 29.92 in 10.0 mi SE 6.9 mph - N/A   Clear
6:35 AM 69.8 °F - 57.2 °F 64% 29.92 in 10.0 mi ESE 6.9 mph - N/A   Clear
6:55 AM 71.6 °F - 57.2 °F 60% 29.91 in 7.0 mi ESE 4.6 mph - N/A   Clear
7:15 AM 71.6 °F - 59.0 °F 64% 29.91 in 10.0 mi SE 4.6 mph - N/A   Clear
7:35 AM 73.4 °F - 60.8 °F 65% 29.91 in 10.0 mi Calm Calm - N/A   Clear
7:55 AM 75.2 °F - 60.8 °F 61% 29.91 in 10.0 mi Calm Calm - N/A   Clear
8:15 AM 75.2 °F - 60.8 °F 61% 29.91 in 10.0 mi Calm Calm - N/A   Clear
8:35 AM 78.8 °F - 60.8 °F 54% 29.90 in 10.0 mi Calm Calm - N/A   Clear
8:55 AM 78.8 °F - 60.8 °F 54% 29.90 in 10.0 mi Calm Calm - N/A   Clear
9:15 AM 78.8 °F - 59.0 °F 51% 29.89 in 10.0 mi SW 3.5 mph - N/A   Clear
9:35 AM 80.6 °F 81.5 °F 60.8 °F 51% 29.89 in 10.0 mi WSW 5.8 mph - N/A   Clear
9:55 AM 80.6 °F 81.5 °F 60.8 °F 51% 29.89 in 10.0 mi WNW 6.9 mph - N/A   Clear
10:35 AM 82.4 °F 83.4 °F 62.6 °F 51% 29.87 in 10.0 mi NNW 4.6 mph - N/A   Clear
10:55 AM 82.4 °F 82.9 °F 60.8 °F 48% 29.87 in 10.0 mi NNW 4.6 mph - N/A   Clear
11:15 AM 84.2 °F 84.4 °F 60.8 °F 45% 29.86 in 10.0 mi West 6.9 mph - N/A   Partly Cloudy
11:35 AM 84.2 °F 84.4 °F 60.8 °F 45% 29.86 in 10.0 mi NW 4.6 mph - N/A   Clear
12:15 PM 86.0 °F 86.6 °F 62.6 °F 45% 29.85 in 10.0 mi West 11.5 mph 16.1 mph N/A   Partly Cloudy
12:36 PM 86.0 °F 86.1 °F 60.8 °F 43% 29.85 in 10.0 mi WNW 9.2 mph - N/A   Scattered Clouds
12:55 PM 86.0 °F 86.1 °F 60.8 °F 43% 29.85 in 10.0 mi NW 6.9 mph - N/A   Mostly Cloudy
1:35 PM 87.8 °F 88.5 °F 62.6 °F 43% 29.84 in 10.0 mi NW 3.5 mph - N/A   Overcast
1:55 PM 87.8 °F 87.6 °F 60.8 °F 40% 29.82 in 10.0 mi NW 4.6 mph - N/A   Overcast
2:15 PM 89.6 °F 90.1 °F 62.6 °F 40% 29.82 in 10.0 mi NNW 5.8 mph - N/A   Mostly Cloudy
2:35 PM 89.6 °F 89.5 °F 60.8 °F 38% 29.81 in 10.0 mi West 8.1 mph - N/A   Mostly Cloudy
2:55 PM 87.8 °F 87.6 °F 60.8 °F 40% 29.81 in 10.0 mi WNW 5.8 mph - N/A   Scattered Clouds
3:15 PM 87.8 °F 87.6 °F 60.8 °F 40% 29.81 in 10.0 mi NW 4.6 mph - N/A   Mostly Cloudy
3:35 PM 89.6 °F 89.5 °F 60.8 °F 38% 29.80 in 10.0 mi WSW 10.4 mph - N/A   Scattered Clouds
4:15 PM 89.6 °F 89.5 °F 60.8 °F 38% 29.79 in 10.0 mi West 5.8 mph - N/A   Clear
4:35 PM 89.6 °F 90.1 °F 62.6 °F 40% 29.78 in 10.0 mi WNW 4.6 mph - N/A   Clear
4:55 PM 89.6 °F 89.5 °F 60.8 °F 38% 29.78 in 10.0 mi WSW 5.8 mph - N/A   Clear
5:15 PM 89.6 °F 89.5 °F 60.8 °F 38% 29.77 in 10.0 mi West 6.9 mph - N/A   Clear
5:35 PM 89.6 °F 89.5 °F 60.8 °F 38% 29.76 in 10.0 mi SW 6.9 mph - N/A   Clear
5:55 PM 89.6 °F 89.5 °F 60.8 °F 38% 29.76 in 10.0 mi West 3.5 mph - N/A   Clear
6:35 PM 89.6 °F 90.1 °F 62.6 °F 40% 29.76 in 10.0 mi SSW 4.6 mph - N/A   Clear
6:55 PM 87.8 °F 88.5 °F 62.6 °F 43% 29.76 in 10.0 mi WSW 3.5 mph - N/A   Scattered Clouds
7:15 PM 87.8 °F 88.5 °F 62.6 °F 43% 29.76 in 10.0 mi WSW 3.5 mph - N/A   Mostly Cloudy
7:35 PM 87.8 °F 88.5 °F 62.6 °F 43% 29.76 in 10.0 mi SW 3.5 mph - N/A   Mostly Cloudy
7:55 PM 82.4 °F 84.6 °F 66.2 °F 58% 29.76 in 10.0 mi SSE 3.5 mph - N/A   Mostly Cloudy
8:15 PM 82.4 °F 84.6 °F 66.2 °F 58% 29.77 in 10.0 mi Calm Calm - N/A   Partly Cloudy
8:55 PM 78.8 °F - 64.4 °F 61% 29.77 in 10.0 mi SSE 3.5 mph - N/A   Clear
9:15 PM 75.2 °F - 64.4 °F 69% 29.78 in 10.0 mi Calm Calm - N/A   Clear
9:35 PM 75.2 °F - 62.6 °F 65% 29.79 in 10.0 mi SE 3.5 mph - N/A   Clear
9:55 PM 73.4 °F - 62.6 °F 69% 29.79 in 10.0 mi SE 5.8 mph - N/A   Clear
10:15 PM 73.4 °F - 62.6 °F 69% 29.80 in 10.0 mi SE 6.9 mph - N/A   Clear
10:35 PM 73.4 °F - 60.8 °F 65% 29.80 in 10.0 mi Calm Calm - N/A   Clear
10:55 PM 71.6 °F - 60.8 °F 69% 29.80 in 10.0 mi Calm Calm - N/A   Clear
11:35 PM 69.8 °F - 60.8 °F 73% 29.80 in 10.0 mi SE 3.5 mph - N/A   Clear
11:55 PM 69.8 °F - 59.0 °F 68% 29.80 in 10.0 mi Calm Calm - N/A   Clear